Theta_e
354 355 355 354 355 357 357 355 357 356 355 354 353 352 353 354 354 354 353 354 351 348 350 350 350 351 351 351 351 349 350 350 351 351 351 351 352 357 360 359 359 359 359 359 359 358 357 357 357 357 357 358 358 358 358 358 357 357 356 355 354 354 354 354 354 354 353 353 354 354 354 354 354 354 354 354 354 354 354 353 353 353 351 347 348
355 356 354 354 354 355 355 355 355 354 353 354 356 353 354 355 355 353 352 351 350 350 352 349 350 350 349 350 351 351 350 350 351 351 352 352 353 358 360 359 359 359 359 359 359 358 358 357 357 357 357 357 356 357 357 357 356 356 355 355 355 354 355 354 354 353 354 353 352 353 354 354 354 354 354 354 354 354 354 353 353 352 347 345 348
356 355 354 354 353 354 353 354 353 354 356 356 358 358 358 356 354 352 353 353 354 356 354 350 349 347 351 350 350 351 350 351 352 352 353 352 353 354 358 360 360 359 359 359 358 358 358 358 358 357 357 357 356 356 356 356 356 356 356 356 355 355 355 354 354 355 354 353 353 353 354 354 354 354 354 353 354 353 354 353 353 349 346 345 348
356 355 354 352 352 352 353 353 353 356 357 357 357 360 359 357 358 355 354 355 355 354 355 353 349 348 349 349 350 350 351 351 352 353 353 353 353 354 354 358 360 360 360 360 359 359 358 358 358 358 357 357 357 356 356 356 356 356 356 356 356 356 355 355 356 355 355 355 354 354 354 354 354 354 354 353 354 353 353 353 352 348 344 345 347
354 355 360 352 351 351 351 357 355 356 356 357 359 358 360 358 356 357 353 352 352 351 357 353 350 349 348 349 349 350 351 351 352 352 353 353 353 353 355 356 356 360 360 359 360 359 359 359 359 358 358 357 357 357 357 357 357 356 356 356 356 356 356 356 356 356 356 356 355 355 354 354 354 354 354 353 354 353 353 352 352 347 345 342 347
354 354 356 354 353 353 354 355 354 355 355 356 357 356 356 356 354 353 357 354 350 351 352 350 350 349 348 348 348 349 350 350 351 352 353 353 354 354 354 354 355 354 358 360 360 360 360 359 359 358 358 358 357 357 357 356 357 357 357 357 356 356 357 357 357 357 356 356 355 355 355 355 355 354 354 353 353 353 353 352 351 347 341 346 344
357 355 356 355 355 356 356 354 353 355 354 357 356 354 354 353 357 351 352 354 350 352 353 349 349 346 346 348 348 349 350 350 351 352 353 353 354 354 355 355 355 355 357 355 360 361 361 360 360 360 359 358 358 359 358 357 358 357 357 357 357 357 358 358 356 356 356 356 356 356 355 355 355 354 354 354 354 353 353 353 350 345 345 344 345
361 358 356 355 355 356 356 356 357 357 357 360 358 355 355 355 358 355 352 352 355 350 351 347 349 347 346 346 346 351 348 349 349 351 353 353 353 354 354 355 355 354 359 355 355 359 361 361 361 360 360 360 359 360 360 359 359 359 359 358 358 358 358 358 357 357 357 357 356 356 356 355 355 354 355 354 354 353 352 352 350 347 344 345 347
360 358 355 356 356 357 358 360 362 359 358 358 357 358 356 357 354 359 355 348 349 350 351 350 350 348 344 345 346 350 346 347 348 351 354 352 352 353 354 354 356 362 358 356 355 356 360 361 361 361 361 360 360 360 360 360 360 360 360 359 359 359 359 358 358 357 358 357 357 356 356 356 355 355 355 354 354 353 352 350 349 346 344 345 344
359 359 356 358 357 358 359 360 360 359 359 358 356 358 356 356 354 358 357 351 349 347 349 350 351 347 344 345 345 347 346 346 349 358 351 351 352 353 354 355 356 357 357 357 356 356 356 359 362 362 362 361 361 360 361 361 361 361 360 359 359 359 358 358 358 358 358 358 357 356 356 356 356 355 354 354 353 353 351 350 349 348 345 346 346
359 363 356 360 357 358 358 360 362 359 358 356 356 358 357 355 354 354 359 353 349 350 348 350 353 347 344 343 346 348 346 345 353 351 350 352 353 355 356 354 355 356 356 356 356 355 355 356 357 358 359 362 363 362 362 362 362 361 361 360 360 359 359 359 358 358 358 358 358 357 357 357 355 356 356 354 353 352 351 349 349 349 347 346 346
361 361 358 359 357 358 358 361 361 358 355 353 352 352 351 353 353 353 352 356 359 353 352 351 351 344 347 343 344 345 346 352 350 348 350 350 352 356 354 355 355 355 356 356 356 355 355 355 358 357 357 359 362 363 363 363 362 362 362 361 359 359 360 359 360 359 359 358 358 358 357 357 357 356 355 354 353 352 350 350 350 350 350 347 347
363 362 359 363 359 359 358 360 360 358 354 352 354 354 353 354 355 360 353 350 351 352 351 351 343 338 341 342 341 345 356 351 346 346 348 348 350 353 353 354 354 354 356 356 356 355 354 354 354 355 356 355 357 362 363 363 362 362 362 362 361 360 359 359 359 359 359 358 358 358 359 357 357 356 355 354 353 352 352 351 350 350 350 348 348
365 361 360 359 358 358 359 360 359 357 355 356 354 362 360 356 354 348 352 349 346 352 352 346 340 334 334 336 338 338 347 349 345 345 346 346 348 351 350 352 353 354 355 355 355 355 355 354 354 354 354 354 354 355 358 360 361 363 363 362 362 361 360 360 360 359 359 359 358 359 359 359 357 357 357 356 356 355 353 351 351 351 350 350 348
364 363 359 357 357 356 359 361 359 359 356 355 356 357 354 355 352 348 347 350 353 356 351 345 339 342 339 335 330 332 339 338 342 344 344 344 345 348 348 350 351 352 353 353 353 354 356 355 353 353 352 353 353 354 355 358 359 362 362 362 362 362 361 360 360 359 359 358 359 359 359 359 358 357 357 356 356 355 353 352 351 351 350 350 348
365 365 360 357 357 356 360 359 358 359 357 356 355 355 354 353 353 354 349 345 345 348 359 351 346 338 332 331 330 330 326 330 334 338 342 343 343 345 347 347 348 349 350 351 352 353 355 355 354 353 352 352 353 354 354 353 358 364 365 364 362 362 362 362 361 360 358 359 359 359 359 359 359 358 357 357 356 354 354 353 352 352 351 350 348
364 366 363 359 358 359 361 358 357 358 359 358 356 357 356 355 353 353 350 346 344 346 350 353 349 345 341 334 329 328 328 329 333 333 340 339 341 342 345 346 345 345 348 348 350 351 353 354 354 354 353 353 353 354 354 354 355 361 362 365 364 362 362 363 363 361 360 359 359 359 360 359 359 358 358 358 357 355 354 354 353 352 351 351 349
363 364 364 363 360 361 361 359 356 358 361 360 358 355 355 354 355 354 353 351 346 346 344 351 352 357 348 339 333 328 327 331 330 325 336 341 340 341 341 344 343 343 344 344 344 346 352 353 353 354 354 354 354 355 354 354 356 355 356 358 364 364 363 362 363 362 361 361 360 359 359 359 359 359 358 359 358 356 355 354 354 353 352 351 351
362 362 363 363 360 361 359 360 359 360 365 360 357 357 358 357 357 355 353 356 351 345 345 346 346 350 355 352 351 347 336 331 326 330 325 330 336 338 339 340 340 341 341 341 341 342 346 350 350 352 353 354 354 355 355 355 358 358 361 362 362 363 363 361 361 362 362 361 361 360 360 360 359 359 358 359 359 358 357 355 354 353 353 351 351
360 360 361 362 360 360 359 360 361 360 364 361 358 357 357 358 358 358 356 357 353 346 346 347 342 344 357 349 348 352 340 339 334 332 324 324 327 332 336 336 337 339 341 341 340 340 341 345 345 346 349 351 352 352 353 354 354 356 360 362 363 363 363 361 361 361 362 361 361 361 361 361 360 359 358 359 359 359 357 357 356 354 354 353 352
359 359 358 360 362 359 359 359 361 360 366 362 361 358 356 356 356 355 354 356 357 353 349 348 345 344 343 343 343 342 341 340 338 338 333 326 325 328 328 333 334 336 339 341 340 340 341 342 343 345 347 348 349 348 348 349 352 354 360 361 363 363 362 360 359 362 362 362 361 361 361 362 361 361 360 359 359 358 356 356 356 355 354 354 353
356 357 357 359 359 359 359 359 360 361 364 362 361 358 355 354 357 357 355 355 355 359 353 351 350 346 345 344 340 339 336 336 338 335 335 330 326 327 329 330 326 329 337 337 339 337 340 341 342 344 344 345 346 346 346 347 350 354 357 361 362 363 362 360 358 361 362 362 361 361 360 361 362 361 361 360 360 359 358 356 356 356 355 355 354
354 356 356 358 358 359 358 358 359 362 363 359 358 357 356 354 357 358 358 356 354 354 359 357 353 350 349 345 342 340 335 336 333 336 334 331 328 330 333 334 331 328 331 337 339 336 337 340 341 342 344 344 346 347 346 346 352 355 358 358 359 361 361 360 359 360 357 358 360 361 360 360 361 361 361 361 361 360 360 359 358 357 357 356 355
352 354 354 357 358 358 359 358 358 358 359 357 356 356 356 355 357 358 358 358 357 356 354 353 353 351 351 350 346 345 342 339 341 338 337 335 330 328 331 332 333 332 339 341 342 335 336 338 341 342 344 345 346 348 348 348 349 356 356 358 357 358 359 361 360 359 356 355 353 355 358 360 361 360 361 362 361 361 360 360 360 360 358 357 356
350 353 353 356 357 357 357 356 356 358 358 356 354 356 354 353 356 358 357 358 358 357 355 356 355 354 352 352 350 349 347 346 343 344 340 338 332 330 331 335 329 331 333 337 334 337 336 337 339 340 342 344 347 348 349 349 348 353 358 356 355 356 357 358 359 357 355 354 353 354 354 356 356 356 356 356 358 359 360 361 361 361 360 359 359
349 353 354 355 357 357 358 357 357 357 358 357 355 355 355 352 355 356 357 357 359 359 358 358 356 356 354 350 351 351 350 350 346 342 340 338 332 330 329 331 333 332 333 337 338 334 335 338 338 339 338 340 345 347 348 349 349 354 357 355 352 351 353 354 356 355 354 353 352 353 353 354 356 356 355 354 355 356 356 357 358 359 360 360 360
350 352 355 354 356 356 356 356 357 357 358 357 357 354 358 356 355 356 357 357 357 358 357 357 357 356 354 352 352 351 351 351 349 345 341 338 335 334 333 330 328 327 334 335 335 335 334 336 342 338 338 340 342 346 348 348 351 355 356 354 353 352 350 350 352 352 351 351 351 351 351 352 354 355 354 354 354 356 356 355 355 355 356 356 356
350 351 354 354 355 356 357 356 357 358 357 357 356 354 356 355 356 355 354 359 356 355 356 356 356 356 355 355 353 354 355 354 350 343 339 338 341 340 336 331 328 326 326 328 329 333 340 338 339 341 340 342 345 346 351 353 349 354 358 352 351 350 350 349 349 348 348 348 349 349 349 350 350 350 351 351 351 352 354 354 353 352 352 352 352
350 352 352 353 354 355 356 356 356 358 357 357 357 356 356 355 355 354 354 358 356 354 355 355 355 355 354 355 354 354 354 354 354 354 350 345 344 344 340 335 331 326 324 324 322 329 336 342 337 336 349 346 344 346 349 348 351 352 349 351 351 350 348 346 346 345 345 345 346 346 347 348 348 348 349 349 348 349 351 351 350 350 351 350 351
351 353 352 352 352 360 355 355 355 357 358 357 358 357 357 355 355 354 355 355 355 355 355 354 353 352 353 353 355 353 354 353 353 353 351 348 348 348 344 340 336 331 327 325 324 329 333 338 339 337 342 346 349 350 348 347 351 352 349 350 350 350 345 344 345 344 344 344 343 343 344 345 347 347 345 344 344 346 348 349 349 349 350 350 350
350 351 351 351 351 353 355 355 355 355 358 358 358 357 357 355 356 355 355 355 353 353 354 355 353 353 351 350 351 352 353 353 353 352 352 350 347 346 345 346 339 337 333 328 326 329 337 336 339 345 346 346 350 349 351 350 353 353 349 348 349 350 348 347 345 344 343 342 340 339 339 340 340 340 339 340 341 342 344 345 346 346 348 347 348
345 348 350 350 351 351 353 354 354 355 355 358 358 357 357 356 356 356 356 355 354 353 354 356 356 354 352 351 351 352 353 353 353 353 353 354 351 348 348 347 342 340 339 333 331 333 336 339 340 344 348 348 348 348 348 349 352 354 350 350 350 351 350 349 349 345 342 340 340 339 338 336 336 336 337 339 340 342 344 344 344 345 345 344 343
344 344 345 347 348 351 352 354 353 354 354 356 358 357 357 356 356 356 356 355 354 353 354 354 356 353 352 351 351 351 352 353 352 353 353 353 352 350 349 347 346 343 340 337 334 336 339 340 343 345 347 348 349 346 346 348 349 350 352 351 351 349 349 348 349 347 344 341 339 338 337 336 335 335 336 338 339 341 343 344 344 342 341 339 339
345 344 343 344 346 348 352 353 353 354 354 354 357 357 356 356 356 357 356 355 354 353 353 352 353 355 352 350 351 351 351 351 351 351 352 351 352 351 349 349 346 347 344 341 338 338 338 339 342 345 347 351 350 345 347 350 350 351 351 352 353 351 350 350 348 349 346 342 339 337 336 335 335 335 335 336 337 338 338 339 338 335 334 334 332
346 346 345 343 344 344 348 352 352 353 354 354 355 357 357 356 356 356 356 354 354 353 352 352 352 353 352 352 351 351 352 351 350 351 351 350 350 350 350 351 350 349 349 346 342 339 339 341 342 344 344 347 348 350 349 351 352 352 351 352 354 355 355 354 353 354 348 344 340 338 337 336 336 335 334 334 336 335 334 333 330 329 328 327 326
343 346 347 346 345 345 344 348 352 353 354 355 355 356 356 356 356 355 355 354 354 353 353 353 353 352 353 352 353 352 352 351 351 350 351 351 350 349 348 348 350 350 350 350 346 345 343 342 341 346 345 344 348 350 351 352 352 353 354 355 355 355 355 356 356 356 353 346 343 340 339 337 336 334 333 333 332 329 328 328 327 327 327 326 325
344 344 346 347 347 346 346 346 349 352 353 354 354 354 356 357 357 356 356 355 354 354 353 353 358 353 353 353 353 353 351 351 351 351 351 350 351 350 349 349 349 350 351 351 350 348 345 344 344 344 346 347 349 350 349 352 353 353 354 354 355 355 356 357 357 357 349 345 344 342 339 337 336 335 333 332 331 330 329 329 327 327 326 324 324
346 345 344 345 348 347 347 347 348 350 352 354 354 354 354 356 356 357 356 356 355 354 355 354 354 355 354 354 353 353 352 350 350 350 350 350 350 350 349 348 348 349 349 349 350 349 348 347 346 347 343 347 345 346 349 350 352 351 352 354 355 356 356 356 358 360 362 363 362 363 352 348 345 340 339 337 335 333 333 331 330 328 326 324 321
347 346 346 344 345 348 349 348 348 349 351 352 354 354 353 354 355 356 356 355 355 354 354 354 355 356 356 355 354 354 353 352 351 350 350 350 351 350 350 350 349 348 348 348 348 347 347 347 347 347 346 345 346 348 348 350 352 352 352 352 353 355 354 352 355 359 362 362 358 353 352 350 345 348 339 335 336 335 335 331 329 327 326 324 321
347 347 347 346 344 345 349 350 350 350 350 350 352 353 353 353 353 354 355 355 355 354 354 353 354 355 356 357 356 356 355 354 353 352 351 351 351 350 350 350 350 348 348 347 346 346 345 345 345 346 344 345 343 348 348 347 349 348 350 351 349 350 352 350 352 354 354 354 356 358 355 354 353 350 342 342 342 340 337 338 332 332 329 325 322
348 347 348 348 346 344 346 349 351 351 351 350 351 351 352 352 353 353 354 355 355 354 354 354 353 352 354 356 357 357 358 363 360 358 357 357 352 350 350 349 349 348 348 347 347 345 345 345 345 345 344 345 347 347 348 344 346 349 350 347 347 351 351 350 353 353 355 354 354 356 358 358 355 354 354 353 354 352 346 336 334 336 331 323 322
348 348 347 348 348 346 344 347 350 352 352 353 349 341 345 353 352 353 354 354 354 354 353 353 353 353 353 353 356 365 365 360 354 350 347 349 356 355 352 350 350 349 348 347 347 347 346 344 345 345 344 346 347 347 347 347 349 349 349 349 347 345 344 347 347 347 350 353 352 353 354 356 354 352 352 352 354 353 345 335 332 330 327 324 324
349 349 348 347 347 348 346 345 347 351 353 354 342 335 336 341 351 352 352 353 354 354 353 353 352 353 354 354 354 360 366 368 358 347 345 343 344 346 349 356 358 352 348 347 347 347 346 346 346 346 346 347 349 349 349 351 349 349 349 345 346 341 341 340 340 345 350 352 350 349 350 354 352 350 350 351 352 350 339 332 331 329 324 324 323
350 350 349 347 347 348 348 347 346 349 351 345 335 333 334 334 342 353 352 352 354 353 354 353 353 353 353 353 354 355 356 358 359 358 350 344 340 341 342 344 347 350 352 351 349 347 347 347 347 348 348 348 350 346 348 345 350 347 348 344 343 342 343 340 339 341 347 353 350 348 348 351 349 348 348 351 349 342 335 327 327 326 324 323 323
351 349 348 348 347 347 348 347 347 348 349 341 333 331 332 332 333 346 352 352 352 353 353 353 353 353 353 352 352 354 355 365 364 360 357 356 345 338 338 340 342 342 338 339 345 352 350 349 348 348 349 349 349 350 349 346 345 345 342 341 342 340 340 340 342 345 351 351 351 346 345 349 346 344 342 344 340 337 337 331 327 326 323 322 321
351 350 349 348 347 347 348 348 348 349 349 341 330 328 329 329 331 337 352 352 352 352 352 353 353 353 353 352 352 352 353 354 355 356 356 354 355 353 349 346 345 348 344 338 336 339 346 352 351 349 351 350 351 350 349 346 344 344 342 341 339 338 340 342 345 349 351 354 349 344 340 341 343 334 332 334 337 335 335 329 325 324 323 321 320
350 350 349 348 347 348 348 349 349 350 351 337 328 325 325 325 328 334 351 353 352 352 352 352 352 352 352 353 352 352 352 352 353 354 353 353 352 351 349 348 347 347 347 348 348 347 347 349 351 353 353 349 348 348 347 346 346 346 346 345 344 343 344 346 348 345 348 350 348 342 338 339 336 331 331 332 334 332 332 328 325 323 322 320 320
351 351 351 350 348 347 348 349 349 350 352 334 327 324 323 323 327 340 349 352 352 351 351 351 352 352 352 352 352 352 352 351 354 345 351 352 349 349 348 348 347 347 347 351 341 344 351 350 350 351 351 351 343 349 350 349 346 344 347 347 347 345 344 342 345 345 343 346 342 339 334 330 333 330 330 331 331 329 331 330 327 323 322 320 320
349 350 351 350 350 349 348 349 349 350 352 337 325 322 321 322 325 343 347 351 352 352 351 350 350 351 353 352 351 351 351 351 347 335 334 351 348 347 347 347 348 348 348 350 339 332 333 331 332 334 334 334 332 330 328 329 340 344 345 344 345 346 341 341 342 341 344 342 338 338 334 331 331 329 330 329 329 327 328 329 330 325 322 319 317
349 350 351 351 351 351 349 349 350 350 351 341 322 321 320 320 329 344 347 349 350 351 352 352 350 348 351 362 361 351 351 351 340 333 332 340 344 346 346 346 347 348 350 353 354 349 330 327 327 328 329 330 332 332 332 331 329 339 345 343 346 343 344 341 341 342 342 338 337 339 330 329 329 327 327 327 325 326 327 328 330 329 326 319 316
350 351 352 352 352 351 351 350 348 350 351 343 320 321 319 318 328 346 348 349 349 350 351 351 351 350 349 356 362 355 352 347 335 331 330 337 345 345 345 344 343 344 347 350 354 356 352 349 349 346 345 345 345 345 346 338 334 340 346 348 349 346 344 343 343 339 340 337 337 339 329 326 328 327 325 321 317 319 322 328 328 326 325 322 322
Wind_Speed
4 4 3 3 3 3 4 4 3 4 3 3 3 3 2 2 3 3 2 2 2 3 3 1 1 2 2 4 5 5 4 4 4 3 3 2 2 5 9 8 8 7 7 7 7 7 7 7 6 7 7 7 7 6 6 6 5 4 4 4 3 3 2 2 1 1 1 2 2 3 4 5 5 5 5 4 5 6 6 6 5 5 5 5 4
4 3 4 4 3 3 2 3 3 4 3 3 3 4 4 3 3 3 3 1 2 3 2 2 2 2 3 4 5 5 5 5 5 4 3 4 3 4 11 9 9 8 8 7 7 7 7 7 7 7 7 7 7 7 6 6 5 5 5 4 3 3 2 2 2 2 2 2 3 3 3 4 4 4 4 4 5 5 5 4 4 4 4 3 3
4 4 4 4 3 3 2 2 3 4 2 2 2 3 3 4 4 4 3 2 2 2 2 2 3 4 4 5 5 5 5 5 5 4 4 4 4 3 5 10 9 8 8 8 7 7 7 7 7 7 7 7 7 7 6 6 6 6 5 5 4 4 3 3 4 4 4 3 4 3 4 4 4 4 4 4 4 4 4 3 3 3 2 2 2
4 4 4 4 3 3 2 1 2 2 3 3 2 1 1 2 2 2 2 1 0 1 1 1 2 4 4 5 4 5 5 5 5 5 4 4 4 3 3 4 9 8 8 8 8 8 7 8 7 8 8 7 7 7 7 7 7 7 6 6 6 6 5 5 6 5 5 4 4 4 3 4 4 4 4 4 3 4 2 2 2 2 1 1 1
4 4 4 4 4 3 3 2 2 2 2 2 1 1 0 1 1 1 1 1 1 2 0 1 1 2 5 5 5 4 4 5 5 5 5 4 4 3 3 3 3 7 8 8 8 8 8 8 8 8 8 8 8 8 8 8 8 8 8 7 7 7 6 6 6 6 5 5 5 5 5 5 4 5 4 4 3 4 2 2 2 2 1 1 1
5 4 3 4 3 3 3 3 3 2 2 2 2 2 1 1 0 1 0 0 1 2 2 2 1 1 3 6 6 5 5 5 5 5 5 5 4 4 4 3 3 3 3 8 8 9 9 9 9 9 9 9 9 9 9 9 9 9 9 9 9 8 8 7 7 7 6 6 6 6 5 4 5 6 6 5 4 4 4 3 3 2 2 2 1
4 5 4 4 4 3 3 4 3 2 3 1 2 1 1 1 1 0 1 0 1 2 2 1 0 2 3 6 7 6 6 6 5 5 5 4 4 4 4 4 4 3 4 3 7 10 10 11 10 10 10 10 10 11 11 11 11 11 11 10 10 9 9 8 8 7 7 7 7 7 6 6 6 6 6 7 5 5 5 5 4 3 3 3 3
4 4 4 4 4 4 4 4 3 2 2 1 1 2 1 1 1 2 2 3 2 2 1 2 2 3 4 5 6 7 6 5 5 5 5 5 5 4 5 4 4 5 5 5 4 5 11 11 11 11 11 12 12 12 12 13 13 13 12 12 11 10 10 9 9 9 8 8 8 7 7 7 7 7 7 7 7 6 5 5 6 4 4 4 4
3 5 5 5 4 4 4 4 3 3 2 2 2 2 2 2 2 2 3 3 2 0 0 0 1 2 3 3 4 6 7 6 6 6 5 5 5 5 5 5 5 7 5 5 5 5 9 13 12 13 13 13 13 13 13 14 14 13 13 12 12 11 10 10 10 10 9 9 9 9 9 9 9 7 7 8 8 7 7 6 6 5 5 5 5
4 5 5 4 4 5 4 4 4 4 3 3 4 3 3 3 3 2 2 2 1 1 1 2 2 2 3 4 4 5 6 6 6 5 6 6 5 6 6 6 6 6 6 6 6 6 5 10 14 14 14 14 14 14 13 14 14 14 13 13 13 12 11 10 10 10 10 10 10 9 9 9 9 8 8 9 8 8 7 7 7 6 6 6 7
4 5 5 5 5 5 5 4 4 4 4 3 4 2 2 2 2 1 1 2 2 2 1 0 1 2 4 5 3 4 5 4 6 6 6 7 7 7 5 6 5 5 6 6 6 6 6 5 6 6 8 15 15 15 15 15 15 14 14 14 13 13 12 11 10 11 11 10 10 10 10 10 10 9 8 8 9 8 9 9 8 7 8 8 8
5 4 4 4 5 5 5 4 4 4 4 4 3 3 3 3 1 2 1 1 1 2 1 0 3 3 4 4 4 5 4 5 5 7 6 6 6 5 6 5 5 6 6 7 6 7 7 6 6 6 6 9 15 16 16 15 14 14 14 14 14 13 13 12 12 11 11 11 11 11 11 11 11 10 11 10 9 9 9 9 9 10 9 9 9
4 4 5 5 5 4 5 4 4 4 4 5 4 3 2 2 2 0 0 0 1 0 1 2 3 2 1 1 1 0 2 5 6 6 7 7 5 6 6 5 6 6 7 7 7 6 5 5 6 5 6 5 7 14 16 15 14 13 14 14 14 14 14 13 13 12 12 12 12 11 10 11 11 12 11 11 10 10 10 10 11 11 10 10 10
5 4 4 5 5 5 5 5 4 4 3 3 3 2 1 2 1 0 0 1 1 2 1 2 1 3 3 0 3 3 2 1 3 5 5 5 6 7 6 6 7 7 6 6 6 6 5 5 5 5 6 6 6 5 7 9 11 13 14 14 15 15 15 14 14 13 13 13 13 11 10 10 12 12 12 12 11 10 8 9 11 11 11 11 11
5 4 5 4 5 5 5 5 4 3 3 3 3 2 2 3 2 2 0 0 1 1 2 2 2 2 2 3 1 0 3 2 1 3 5 5 5 7 7 7 8 8 7 6 6 6 6 5 6 6 6 6 6 6 6 8 8 13 13 13 14 16 16 15 15 14 14 14 13 12 11 11 13 13 13 12 11 11 11 11 11 12 12 12 12
5 5 4 4 5 5 4 5 5 4 5 4 3 3 2 2 2 1 1 0 1 1 1 2 3 5 2 2 3 4 1 4 5 5 3 6 7 7 7 7 8 7 5 6 7 6 6 5 7 7 7 7 6 6 6 5 10 13 14 14 14 14 15 16 16 16 15 14 13 12 11 11 12 13 14 14 13 13 11 11 12 13 13 12 12
5 5 4 5 4 4 5 4 4 4 4 4 4 4 3 3 3 2 2 2 1 2 1 1 2 3 4 2 2 1 3 4 2 5 2 3 6 7 8 8 7 7 7 7 6 6 6 6 7 6 7 7 6 6 6 6 6 6 9 13 14 13 14 16 17 17 16 16 15 12 12 12 13 13 14 15 15 13 12 12 12 13 15 14 13
5 4 5 4 4 4 4 4 4 4 4 4 3 2 3 2 3 3 3 3 1 1 1 0 3 4 4 3 4 2 2 1 2 3 3 5 6 5 7 9 7 7 7 7 7 7 6 7 7 8 7 7 6 6 6 6 6 6 6 8 14 14 14 16 17 17 17 17 16 15 14 13 13 14 14 15 17 15 15 12 12 13 15 16 15
5 5 5 5 4 4 4 4 4 4 3 4 3 5 4 4 3 2 4 3 2 1 2 3 1 1 0 0 1 2 3 3 2 1 2 3 3 5 6 6 6 6 8 8 7 6 7 7 7 8 7 6 6 6 6 6 8 9 11 12 13 14 14 15 15 17 18 17 17 16 16 16 14 13 14 15 16 16 15 15 13 14 15 17 17
6 5 5 5 5 5 5 4 5 5 4 5 5 5 4 3 3 5 3 3 3 4 3 2 3 2 1 0 1 1 2 1 3 3 3 2 4 2 3 3 3 5 7 8 6 7 8 7 8 7 6 6 6 6 7 6 6 7 8 13 14 14 15 15 16 16 17 18 18 17 17 17 16 15 13 15 15 16 16 15 16 15 17 17 17
6 6 6 6 5 6 5 5 5 5 5 5 4 5 6 5 4 4 5 4 4 3 2 2 2 2 0 0 1 1 1 0 1 2 1 2 1 2 3 2 3 4 6 4 4 6 7 9 8 8 6 7 7 7 7 6 7 7 8 13 15 15 15 15 16 16 17 17 18 18 17 17 17 17 16 15 15 18 18 17 18 19 20 19 19
6 6 6 6 6 6 6 6 6 6 5 5 5 5 5 5 6 6 5 4 3 3 4 3 3 2 2 1 0 1 1 1 0 1 2 0 2 1 3 2 3 5 4 6 6 6 7 7 7 6 6 7 7 7 6 7 7 6 9 14 15 16 16 16 16 16 17 16 16 17 17 17 17 17 16 17 17 17 17 18 18 18 19 19 19
6 6 7 7 6 6 6 6 5 5 5 5 5 6 6 6 5 5 5 5 4 3 2 2 2 2 3 3 4 3 3 1 2 1 1 0 1 1 1 1 2 2 5 7 6 7 7 6 7 7 7 7 7 6 7 7 7 9 13 13 15 15 16 16 16 16 17 17 16 16 17 17 17 17 17 17 17 17 17 18 19 19 20 20 20
5 6 6 7 7 6 6 6 6 5 6 6 6 6 5 4 4 5 5 5 4 3 3 3 3 3 3 3 4 3 2 2 2 3 3 2 2 2 2 1 1 3 3 1 3 6 6 7 8 8 8 6 6 7 7 7 8 13 11 13 15 16 16 16 16 16 17 17 17 17 16 16 16 16 16 17 17 17 17 18 18 19 20 20 20
7 7 8 8 7 7 7 7 6 6 5 5 5 5 5 5 5 5 5 5 5 4 4 4 5 4 5 3 3 2 4 3 2 3 2 2 3 0 2 0 0 2 1 0 1 2 5 7 7 7 6 6 6 6 7 7 7 10 12 9 15 15 16 16 16 16 17 17 17 17 16 15 15 16 16 15 16 17 18 19 19 20 20 21 20
9 9 9 9 7 8 8 7 6 6 5 5 5 4 4 5 6 6 6 6 4 5 5 4 4 5 3 4 3 4 3 3 3 3 3 3 1 2 1 1 0 0 3 2 1 0 2 4 5 5 5 6 7 6 6 8 7 11 13 10 11 14 16 16 17 17 17 17 17 17 17 16 14 16 17 17 16 16 17 18 19 20 21 21 21
9 9 8 9 8 7 7 7 7 7 6 6 6 4 4 4 5 7 6 5 5 6 5 5 5 5 4 5 5 3 5 4 2 5 4 5 4 4 3 2 3 3 2 1 3 2 4 3 5 7 8 7 7 7 7 7 9 12 12 9 8 13 14 17 17 17 17 17 17 17 17 17 17 16 17 17 17 18 18 18 19 20 20 21 21
8 7 8 9 9 8 8 8 7 7 7 7 6 5 5 5 5 6 7 4 6 6 6 5 6 5 5 5 3 5 5 4 4 4 4 5 4 3 3 4 3 3 3 2 2 2 1 0 2 1 1 3 4 5 6 7 7 12 11 7 7 8 13 15 16 17 17 17 16 17 17 17 17 18 18 18 18 18 18 19 20 20 20 21 21
8 8 8 8 9 9 8 8 8 8 7 7 7 6 5 5 6 5 6 5 6 7 6 6 6 5 4 5 6 6 5 3 3 4 2 3 4 3 4 5 5 2 1 2 2 2 2 1 0 2 3 1 0 1 2 5 7 8 6 6 7 7 10 14 15 16 16 16 17 17 17 17 17 18 18 18 19 19 19 20 21 21 21 21 21
9 8 8 9 8 9 8 8 8 7 8 7 7 7 6 6 6 6 5 4 5 5 6 6 6 5 4 4 5 5 5 3 5 4 3 3 4 5 5 4 6 4 4 2 4 3 3 3 1 1 2 4 3 2 3 4 8 7 5 6 6 7 12 14 14 15 15 16 16 17 17 17 17 17 17 17 18 19 20 21 21 21 21 21 21
9 8 8 8 8 8 8 8 8 8 7 8 7 7 7 7 6 6 5 5 5 5 5 5 6 5 5 5 4 5 5 5 4 3 3 4 5 4 3 5 4 5 6 3 0 4 2 2 2 1 1 4 4 4 3 3 5 6 5 5 6 10 14 11 13 14 14 15 15 15 16 16 16 16 17 17 18 18 19 20 21 21 21 21 21
9 9 9 9 9 9 8 9 9 8 8 8 8 8 7 7 7 6 6 5 5 6 5 5 4 5 5 5 5 5 5 4 5 4 4 4 4 5 5 5 4 4 5 5 5 7 4 4 4 5 5 4 5 4 5 5 5 7 4 6 7 10 8 7 11 14 14 14 14 15 15 16 16 16 17 18 18 18 19 19 20 20 20 20 20
9 9 9 9 9 10 10 9 9 9 9 9 8 8 8 7 7 7 6 6 7 7 6 6 5 5 6 6 6 5 4 4 5 4 3 3 3 4 3 4 5 3 5 4 5 7 5 3 4 4 2 2 3 3 4 5 5 6 4 5 5 5 6 6 7 11 13 13 14 14 15 16 16 16 17 17 17 17 18 18 18 19 19 19 18
10 11 11 10 9 9 10 10 10 10 10 9 8 7 8 8 8 6 7 8 8 7 6 6 6 5 5 6 6 6 4 5 4 5 4 3 3 3 3 4 5 5 5 5 6 4 7 2 3 3 3 3 3 2 3 5 6 5 6 7 5 4 6 6 6 7 12 13 13 14 14 14 15 15 16 15 15 16 16 17 17 17 17 17 17
10 11 11 11 11 10 10 10 11 10 10 10 9 9 9 10 10 8 8 8 9 8 8 8 8 6 5 6 7 6 4 4 5 5 4 4 4 5 5 4 5 5 5 6 4 5 6 6 3 3 3 2 3 5 4 4 5 5 6 7 7 5 4 5 6 6 10 12 12 13 13 14 14 14 13 14 15 15 15 15 15 15 15 15 14
11 11 11 12 11 10 11 11 10 11 11 10 10 10 11 11 10 10 9 9 9 9 9 9 7 7 8 6 7 6 5 6 6 6 5 4 5 5 4 4 5 6 5 5 5 6 5 5 3 4 3 3 4 5 5 4 5 6 6 7 6 7 7 6 6 6 8 11 12 12 13 13 13 12 12 12 12 13 13 12 13 13 13 13 13
12 11 11 10 11 11 11 11 11 11 11 11 11 11 10 10 11 10 10 9 9 9 9 9 8 8 8 8 8 6 5 6 6 6 6 5 6 5 6 5 5 5 4 5 6 5 5 7 6 3 3 3 4 3 3 5 6 5 5 6 7 7 7 7 5 6 8 11 11 12 12 11 10 9 9 9 10 11 11 11 11 12 11 10 11
12 12 12 11 11 12 12 12 12 11 11 11 12 12 12 10 10 10 9 9 9 9 8 8 8 7 8 9 8 7 6 7 7 6 5 6 5 5 6 6 5 4 4 5 4 5 5 7 6 6 2 4 4 4 3 3 6 7 7 6 5 6 5 6 5 5 5 4 4 5 6 6 5 6 7 9 11 11 12 12 11 9 11 12 13
13 12 12 12 11 11 12 12 12 12 11 11 11 11 10 9 9 9 9 9 9 8 8 9 8 8 8 8 8 7 7 8 7 7 6 6 6 6 7 7 6 5 5 5 5 5 5 6 5 6 6 4 4 6 3 2 4 4 6 9 7 5 4 3 5 5 4 4 4 4 4 5 4 4 7 11 12 13 13 11 9 13 12 11 12
13 13 13 13 12 11 12 12 13 12 12 11 11 11 10 10 9 9 9 9 10 9 9 9 8 8 9 9 9 8 8 8 8 8 7 7 6 6 6 5 6 5 6 5 4 5 5 5 6 7 5 5 3 4 2 2 4 3 4 5 9 8 6 3 3 3 4 3 4 3 3 3 4 6 8 9 10 12 11 8 11 10 10 10 10
12 13 13 13 13 13 12 12 13 12 12 12 10 10 10 10 9 10 10 10 10 10 9 9 9 9 8 9 9 9 9 11 13 11 10 9 6 7 7 5 6 6 6 5 6 6 6 5 7 5 5 6 6 6 6 4 6 8 4 1 4 6 5 5 5 3 4 4 3 2 4 4 5 6 6 6 6 7 8 9 8 10 10 8 10
12 12 13 13 13 14 14 13 12 11 11 10 13 17 15 11 10 10 9 10 10 10 10 9 9 9 10 9 9 14 15 15 14 14 14 14 13 10 8 7 7 6 7 6 6 6 6 6 8 6 7 8 7 6 6 5 4 4 5 5 5 4 3 5 5 3 2 1 4 5 5 4 4 5 5 5 4 4 5 6 5 6 7 10 12
13 13 13 14 14 13 14 14 13 12 11 11 17 17 18 18 13 10 10 10 10 10 10 10 10 10 9 9 9 11 13 14 13 15 15 15 15 16 16 14 11 9 7 7 7 6 6 7 7 5 7 9 9 5 5 6 4 5 6 3 3 2 3 5 9 6 0 1 3 4 6 4 3 5 5 4 3 4 5 4 5 8 9 12 14
13 12 13 14 14 13 13 13 13 13 12 14 17 18 19 19 17 12 10 10 9 10 10 10 10 10 10 9 8 8 8 9 10 10 12 15 16 16 17 16 15 14 13 10 9 6 6 7 7 8 6 8 8 3 4 2 6 5 4 2 2 2 4 5 4 6 3 1 3 4 6 4 2 2 4 3 4 4 5 4 8 11 12 14 14
12 13 14 14 14 13 13 13 14 13 12 16 17 18 19 19 19 16 10 10 10 10 11 11 11 10 10 9 9 8 8 12 11 9 8 9 13 17 16 15 14 14 14 15 14 11 7 7 8 8 8 6 7 6 4 4 2 3 2 4 4 3 3 5 6 4 6 1 4 3 4 5 3 2 3 3 3 3 4 5 10 14 12 12 12
13 13 14 15 14 13 13 13 13 13 13 15 17 18 18 19 19 16 11 11 10 11 11 11 10 11 11 10 10 9 9 9 9 9 8 8 8 8 8 9 9 13 14 15 15 14 8 7 8 10 8 5 8 6 4 3 3 6 5 6 4 3 5 6 6 5 4 3 2 1 3 2 2 3 4 4 3 4 3 6 14 13 10 10 13
13 13 14 14 14 14 14 13 12 13 13 17 17 18 18 19 19 16 12 10 9 9 10 10 11 11 10 10 11 11 10 9 9 10 9 9 8 8 7 8 9 9 9 10 10 9 8 8 9 10 10 6 7 7 6 4 6 6 4 5 4 4 4 4 5 3 4 2 1 2 3 2 2 4 3 3 3 3 3 7 13 12 10 11 12
12 11 12 12 14 14 13 13 13 14 14 18 18 19 19 18 18 11 11 11 10 10 10 10 10 10 10 10 10 11 11 11 13 15 13 9 7 8 8 8 7 7 8 11 12 10 9 9 10 10 10 9 9 8 8 6 3 2 2 2 2 2 1 3 6 4 2 1 1 2 2 1 0 2 2 3 1 2 3 5 9 11 10 11 11
13 13 13 13 12 13 14 14 14 14 13 15 19 20 20 20 14 9 10 10 10 11 11 11 11 10 9 10 10 11 11 11 14 15 15 12 7 8 7 8 7 6 9 7 10 14 15 15 15 15 15 15 14 13 11 9 5 1 1 1 5 3 3 5 6 4 4 1 1 1 2 2 1 1 3 3 1 1 3 5 5 8 9 10 11
14 13 12 12 12 13 14 15 14 13 13 13 18 19 20 20 16 12 10 10 11 11 12 12 9 8 10 16 14 12 12 12 16 16 17 12 10 10 10 9 9 9 9 6 4 7 13 14 14 14 13 12 11 12 11 11 9 4 5 7 5 2 5 5 6 5 4 2 3 3 1 2 0 0 1 4 2 1 2 4 5 4 7 8 10
14 12 11 12 12 12 13 14 16 16 13 12 16 19 20 19 16 11 10 9 11 11 11 12 10 8 9 12 18 16 14 15 17 17 18 14 11 11 11 9 10 11 11 7 7 6 4 4 6 7 8 10 9 7 8 12 8 8 8 8 6 6 7 7 7 4 4 4 3 3 1 1 1 1 1 3 2 3 1 3 3 3 4 4 5
Wind_Direction
163 168 159 161 164 160 155 160 153 165 154 163 160 185 204 212 225 235 228 175 189 206 210 170 177 184 148 134 142 142 142 140 143 152 159 176 173 179 172 173 172 166 161 159 159 163 167 171 172 175 175 174 173 180 179 182 182 181 182 173 174 159 162 163 203 228 271 310 329 333 350 352 352 352 354 359 3 12 20 30 29 32 24 10 29
170 157 150 161 163 161 147 148 164 175 167 173 195 176 207 199 197 195 191 133 167 223 176 188 200 175 169 147 149 155 152 149 154 164 170 172 184 193 174 175 173 169 167 168 172 170 174 174 178 177 179 180 182 182 189 190 190 195 195 195 195 202 202 219 233 247 259 263 307 315 337 332 334 340 342 354 356 9 16 30 37 31 11 21 24
159 149 142 143 151 162 187 164 161 184 176 193 184 179 186 177 174 177 173 157 162 194 156 197 187 165 165 153 156 147 151 152 154 163 171 182 192 197 180 176 173 171 172 174 175 179 179 183 184 186 185 187 191 194 195 202 204 208 209 210 215 221 225 226 253 252 255 267 280 318 312 311 319 338 332 343 345 3 3 26 48 18 8 13 23
158 153 147 146 158 177 195 200 204 191 171 169 182 180 162 158 155 153 148 127 120 157 157 148 182 166 158 157 155 151 155 159 164 169 177 185 189 192 182 179 179 177 178 179 182 186 187 190 192 193 196 197 201 203 206 212 214 219 220 224 226 232 227 236 239 253 274 281 287 286 293 288 313 312 322 323 337 326 342 340 45 26 2 6 42
172 160 153 159 165 174 194 217 204 181 176 164 154 222 148 114 104 90 75 41 22 327 38 127 157 216 169 162 159 164 162 163 167 169 183 186 190 184 181 178 185 186 189 189 191 194 197 199 201 201 202 207 207 213 215 219 222 225 231 230 236 239 240 242 248 254 267 273 271 275 277 292 291 298 299 304 307 305 296 312 1 340 297 291 262
165 163 150 159 170 179 187 196 190 176 169 143 136 160 124 114 356 53 185 75 331 313 341 323 321 157 167 162 166 174 168 171 174 179 180 185 182 182 185 183 180 197 201 202 203 204 205 206 208 209 211 216 217 219 223 224 227 231 234 236 240 242 248 251 253 255 259 263 265 267 277 276 279 286 294 296 290 290 279 282 316 303 265 262 255
169 161 165 165 175 181 180 183 177 163 155 173 142 103 93 174 148 128 303 318 267 279 247 241 143 180 175 163 175 175 175 177 176 176 180 183 176 185 186 186 190 198 207 217 211 213 214 213 215 215 218 222 225 226 228 228 230 234 235 238 242 244 251 255 260 261 259 260 264 265 267 277 286 287 294 298 297 284 291 285 294 282 260 246 251
163 159 163 178 174 171 175 165 173 156 157 168 117 116 146 134 186 166 199 255 223 240 176 196 218 218 193 172 173 171 177 177 179 182 179 170 184 186 190 194 193 199 205 208 218 223 220 221 222 224 224 227 230 233 234 234 234 235 240 240 243 247 251 257 258 260 261 264 268 276 276 272 277 283 280 284 285 290 286 287 293 279 259 252 243
163 166 167 177 170 160 165 170 158 146 152 148 142 165 168 174 224 203 179 209 222 226 345 283 234 222 195 182 175 161 175 179 185 183 168 181 185 191 192 199 202 205 208 209 216 223 226 223 224 225 228 230 233 237 239 240 242 241 243 247 248 250 252 256 261 262 265 266 268 269 271 274 273 274 282 284 285 279 281 289 294 282 268 258 252
170 166 172 178 165 158 162 160 146 145 154 145 164 175 181 162 195 248 179 162 232 169 187 239 208 155 188 198 194 172 177 178 180 175 173 187 193 195 200 199 199 204 205 209 211 214 220 226 226 229 229 230 232 236 239 243 246 246 247 249 251 254 255 255 257 262 263 266 267 268 269 274 275 271 272 281 286 283 274 271 280 281 267 258 254
173 170 169 173 162 160 157 162 153 157 152 150 157 160 158 182 170 241 196 188 192 198 196 227 2 144 187 203 191 183 188 167 180 178 183 192 195 199 190 204 203 208 211 213 216 214 217 220 224 225 230 231 231 234 237 240 243 247 248 250 250 253 254 254 256 256 258 262 264 263 265 266 266 261 262 265 269 271 272 267 269 271 266 260 256
179 176 168 162 162 162 159 164 163 156 150 154 172 170 175 175 214 186 260 302 248 242 262 155 27 116 170 180 183 156 171 177 179 185 193 191 201 191 202 199 204 208 212 218 216 216 215 217 221 226 229 236 234 235 236 239 242 245 248 250 251 251 251 253 256 255 257 257 258 259 259 260 263 259 258 267 268 268 268 266 266 267 266 258 254
177 171 169 166 160 159 156 172 170 162 166 179 177 180 185 181 190 193 131 74 308 351 299 109 107 66 1 39 336 359 155 170 180 189 194 200 191 197 205 193 206 206 212 215 219 219 214 219 224 227 232 239 248 243 241 241 243 244 246 249 251 252 253 252 253 254 254 256 256 254 249 254 256 259 260 263 262 262 261 263 263 262 261 256 253
176 174 166 159 156 158 162 177 177 171 169 170 168 175 170 185 156 56 358 146 224 216 217 98 43 139 131 323 342 335 308 127 189 205 210 202 194 202 202 205 205 213 212 213 221 214 212 214 221 227 229 228 233 237 245 244 243 241 242 245 247 249 250 252 252 253 254 255 256 256 250 244 250 251 255 259 262 262 257 255 258 258 258 255 253
177 173 163 170 165 157 170 173 179 170 153 172 174 192 182 187 168 167 255 330 287 238 206 129 168 111 101 92 298 282 318 350 290 234 213 216 194 203 207 207 211 214 207 208 218 216 211 208 216 222 227 228 229 231 236 239 238 238 238 239 243 247 249 250 251 253 253 254 255 252 249 244 249 251 251 255 260 263 262 255 253 253 253 254 253
180 175 168 174 168 167 164 167 180 178 164 167 178 198 201 204 183 178 129 50 349 304 207 194 127 124 142 174 206 131 330 280 253 275 222 209 199 203 209 209 212 218 206 212 213 213 217 207 213 219 225 226 227 228 231 233 241 238 236 236 238 241 246 249 251 252 252 253 255 251 244 244 244 244 246 251 256 258 256 253 251 255 256 253 252
182 177 171 178 180 167 168 174 174 185 161 164 181 199 201 204 178 170 169 162 241 267 304 173 159 177 138 98 48 87 215 240 189 266 268 232 224 198 208 209 206 208 212 222 213 211 211 215 216 217 225 225 226 225 227 234 240 240 239 239 238 235 235 241 245 249 251 251 253 250 245 242 243 243 242 243 253 256 255 252 250 252 258 257 253
183 178 175 176 180 176 174 168 178 186 178 184 183 181 211 209 215 190 220 226 176 128 302 267 208 215 191 161 163 173 195 240 112 251 295 240 242 210 199 209 203 200 214 220 209 212 214 220 216 220 221 223 224 223 224 229 229 231 230 235 236 234 233 234 239 244 248 251 251 251 250 244 240 239 238 241 250 254 256 253 250 249 254 255 254
187 181 177 182 180 177 180 182 178 186 186 169 179 196 203 212 208 195 221 214 150 171 209 243 353 264 218 154 196 196 175 124 213 78 270 298 282 240 227 214 206 196 207 221 209 209 220 222 222 222 222 221 222 223 223 228 229 229 230 231 231 232 233 233 233 239 244 247 249 249 250 252 250 243 241 241 244 250 253 256 252 248 250 254 252
184 188 186 184 181 183 186 188 184 189 179 184 193 197 201 221 201 213 222 208 185 182 220 204 155 258 353 6 294 251 215 233 146 168 169 186 281 323 274 233 222 223 212 211 200 208 215 224 228 226 224 222 220 219 223 224 227 231 235 234 231 231 233 232 232 233 238 244 248 249 250 250 252 251 247 246 243 247 253 254 255 251 249 250 250
189 188 196 189 187 187 188 191 192 193 188 190 200 193 198 202 209 213 223 225 200 195 154 201 159 212 19 315 344 27 338 319 123 135 139 136 287 237 256 320 190 234 230 228 222 208 207 213 220 219 216 221 217 218 219 222 226 228 234 235 233 232 232 233 232 232 234 238 244 248 250 251 251 252 253 251 247 252 255 255 254 256 257 256 255
197 192 194 198 194 189 189 192 196 195 193 194 199 203 202 201 203 202 206 212 225 186 193 198 187 192 178 170 121 346 17 13 24 66 73 97 170 215 230 192 204 263 216 223 221 214 211 217 222 224 217 219 216 216 217 220 223 227 233 234 234 233 232 232 233 232 233 235 239 245 248 250 250 251 252 252 252 251 251 252 254 256 257 258 258
190 199 195 196 199 195 193 195 193 194 195 198 200 202 201 202 208 208 196 200 210 219 238 216 195 178 186 174 195 190 185 176 234 248 146 177 13 320 272 223 206 266 232 216 209 213 210 211 220 222 220 219 218 214 217 220 222 227 230 232 235 235 234 234 234 234 235 238 240 240 244 247 249 250 251 251 253 254 255 256 257 258 259 260 260
193 196 204 198 195 198 200 195 195 191 198 202 202 203 200 200 205 203 201 204 201 198 203 222 245 232 249 201 213 196 172 198 227 188 158 215 150 239 267 296 352 257 287 306 206 216 224 217 221 221 222 220 220 218 222 225 230 232 233 236 236 237 237 237 238 237 237 238 240 242 244 247 250 252 254 255 255 256 257 257 256 256 257 257 258
201 199 205 199 191 191 196 198 205 202 201 202 207 198 198 197 198 207 203 194 197 195 190 209 211 224 234 237 210 202 232 217 182 229 268 141 139 200 279 78 218 310 301 70 264 267 220 229 221 227 225 225 225 221 224 226 231 233 231 239 236 239 240 241 240 239 239 239 241 242 244 247 250 252 254 255 256 257 257 257 257 257 257 257 256
195 201 199 195 194 193 190 196 201 205 205 211 206 196 195 197 195 201 210 208 190 194 201 210 210 226 225 247 244 230 248 233 220 208 206 147 148 176 231 348 320 276 297 354 318 347 282 250 249 243 237 232 229 224 226 228 232 238 232 232 240 238 240 242 242 242 242 242 244 246 247 248 247 249 252 253 253 253 254 255 256 258 259 259 258
197 200 193 192 195 194 193 190 197 205 207 213 221 194 196 197 201 202 208 206 197 197 208 211 217 226 225 223 243 254 252 250 228 243 214 203 183 171 152 284 337 17 352 301 326 227 227 285 216 217 221 219 220 222 225 225 230 234 234 233 242 241 239 242 245 247 246 247 247 248 249 250 251 251 254 255 255 255 255 254 255 257 257 258 259
199 190 197 192 193 196 196 196 194 201 205 208 213 207 191 189 198 197 208 204 201 200 214 212 222 221 219 228 223 240 235 238 213 246 234 208 177 155 122 121 151 287 330 341 346 303 257 282 317 311 264 239 251 230 238 232 237 241 238 233 238 247 245 243 245 247 249 250 251 250 251 253 255 256 258 259 259 258 258 258 259 259 259 259 260
193 195 193 196 196 195 197 198 195 197 201 206 209 210 194 193 187 186 198 201 198 204 210 212 227 219 220 224 220 231 235 214 216 230 214 172 178 170 151 161 161 137 249 305 284 255 306 349 311 294 8 35 177 212 232 251 259 255 244 237 241 246 250 247 246 248 250 251 252 253 254 254 256 257 260 262 264 263 263 262 263 263 262 262 262
192 194 193 197 199 198 198 202 201 196 199 201 205 206 197 200 199 201 204 183 194 207 209 207 221 219 219 221 219 235 244 219 200 210 194 183 158 166 174 168 150 156 176 193 273 221 251 310 230 266 324 344 314 290 198 234 241 250 254 254 252 252 253 252 251 251 251 252 254 255 257 258 260 262 264 266 267 267 267 267 267 267 267 267 266
192 192 192 199 199 203 201 205 202 202 198 200 199 199 196 202 203 204 212 201 198 207 220 213 226 219 227 227 228 235 247 245 238 189 195 173 187 171 170 146 166 146 159 143 203 287 182 255 296 275 307 313 310 316 308 283 276 265 259 255 254 253 258 266 264 259 256 256 256 259 261 263 264 265 266 266 267 267 268 269 270 271 271 272 272
194 192 193 196 199 202 205 205 205 203 200 202 198 198 196 202 201 206 208 204 214 217 222 219 226 219 222 232 229 226 233 231 247 228 192 189 183 183 173 172 178 169 148 154 183 256 234 207 246 279 277 268 296 302 290 291 286 284 273 274 269 274 278 271 273 268 264 262 262 261 263 263 263 264 265 266 267 269 270 271 272 275 276 275 275
195 197 197 198 198 203 205 205 206 203 202 202 200 196 197 203 205 206 207 206 213 221 217 226 228 221 220 226 236 231 224 208 220 222 208 202 181 193 187 168 178 173 159 173 202 258 288 246 245 251 264 255 297 220 259 285 298 295 285 267 272 274 272 271 273 275 271 267 263 263 263 265 265 266 266 268 271 275 276 279 281 281 280 279 277
200 203 205 205 200 199 203 206 206 206 204 202 199 193 199 203 208 204 210 208 213 220 214 224 222 220 218 224 241 243 220 216 214 219 211 191 186 201 213 196 202 199 199 165 213 224 269 308 296 291 276 200 249 234 237 279 285 288 290 289 280 258 267 271 272 272 271 268 267 265 267 269 270 271 274 280 283 283 285 285 284 284 286 288 289
205 206 208 210 210 206 205 206 206 206 203 203 199 196 201 203 206 210 210 209 212 215 215 220 219 214 217 223 235 239 237 231 232 227 216 217 203 199 216 202 213 221 203 202 187 226 251 271 255 278 270 271 225 272 265 250 262 274 288 288 286 286 264 257 263 269 272 270 269 270 271 273 274 279 286 288 289 290 289 289 290 291 292 299 303
204 207 208 209 211 212 213 212 208 208 206 204 201 201 203 202 206 210 210 211 215 218 218 217 215 211 217 222 232 230 228 227 233 230 226 219 219 218 223 219 207 222 216 204 209 215 228 251 274 220 256 250 272 263 266 271 275 282 273 287 290 284 285 283 269 270 274 274 276 279 280 281 284 288 289 291 289 287 288 292 296 303 316 319 321
209 206 209 207 208 209 213 215 212 211 209 205 204 206 208 205 206 208 209 212 216 219 222 221 214 210 217 219 227 220 213 224 233 227 221 221 224 221 226 229 215 221 222 208 219 215 230 246 269 256 240 257 255 268 258 277 290 283 285 280 283 287 290 284 288 277 277 278 276 280 283 287 291 292 296 292 288 291 300 302 320 332 326 334 344
210 209 208 207 206 208 211 214 213 213 211 208 208 209 209 208 207 208 209 212 217 219 223 227 224 216 215 221 225 213 209 214 228 226 221 222 223 226 233 234 223 215 222 231 220 221 224 243 248 286 271 255 302 271 248 235 275 294 294 284 292 288 283 303 296 288 289 292 303 299 306 320 315 322 308 306 312 319 316 342 349 351 12 12 2
210 210 211 211 210 208 211 212 213 212 211 209 211 213 212 208 207 208 210 213 218 219 222 224 226 224 222 224 223 214 212 216 223 224 221 225 219 228 228 231 229 212 219 224 219 222 225 242 258 246 270 269 238 279 282 241 257 253 283 302 297 281 303 284 292 292 288 291 280 290 298 302 315 308 321 322 321 326 339 19 31 33 17 4 354
213 212 211 211 214 212 211 212 213 212 210 210 211 212 211 206 204 208 209 211 215 221 225 225 224 225 225 225 224 218 215 218 220 227 214 222 218 230 231 224 226 221 230 229 220 219 228 235 242 259 256 278 288 264 313 1 315 291 233 257 291 304 309 296 252 282 300 307 310 336 316 327 331 331 331 323 341 339 10 40 40 26 6 352 349
214 215 213 211 212 216 216 214 214 212 212 213 210 209 207 207 204 208 209 210 212 216 223 227 225 226 227 228 229 226 219 221 220 223 220 214 208 223 234 213 222 220 232 236 231 232 243 244 265 261 272 278 267 278 288 270 254 264 269 222 274 283 296 314 296 266 248 276 307 354 326 345 346 333 332 340 349 346 45 46 27 8 356 351 2
215 215 215 214 212 213 215 216 215 213 215 214 213 208 205 203 204 209 208 211 211 213 218 223 228 227 229 229 231 230 228 227 225 225 227 224 221 219 225 205 215 214 222 228 231 227 228 241 250 253 266 265 263 247 257 252 245 272 291 284 273 285 327 305 286 252 277 331 346 339 328 333 356 323 340 359 336 19 60 42 12 352 350 13 27
215 214 214 216 215 213 214 215 215 215 216 215 210 206 207 206 203 206 206 210 211 214 215 216 224 225 229 229 233 237 235 235 231 227 227 229 230 231 234 226 212 204 212 221 232 221 216 232 243 243 244 262 263 243 239 260 253 246 259 248 235 322 340 340 319 317 263 67 358 337 319 328 11 340 334 356 6 33 66 44 9 5 24 37 34
214 213 215 216 217 215 215 216 216 216 218 216 207 205 205 206 205 205 207 208 208 211 213 216 221 225 228 228 229 230 232 230 231 233 230 233 234 235 237 239 235 226 216 208 221 225 220 231 241 237 235 246 266 240 248 238 260 262 249 245 240 283 308 309 288 287 263 45 4 332 310 308 19 3 353 356 24 30 76 60 19 25 42 41 31
212 214 217 215 217 217 216 215 217 217 220 215 207 205 206 206 206 206 209 209 209 210 212 214 218 221 225 229 233 231 233 230 231 230 229 235 236 238 241 243 246 241 238 233 225 220 206 222 234 246 226 239 256 255 205 217 180 232 265 277 279 276 265 277 268 281 301 24 1 330 308 311 15 20 11 353 16 34 41 25 19 37 44 41 27
214 217 216 217 217 217 217 215 216 218 219 218 206 205 205 205 205 205 215 211 213 214 213 214 216 218 218 221 227 234 233 233 233 231 229 231 235 239 240 239 240 246 243 241 243 246 239 224 225 244 243 187 239 249 229 192 223 254 259 266 253 270 277 265 272 274 286 346 301 315 309 301 2 38 358 325 355 44 30 18 31 38 45 37 25
213 214 215 217 217 217 218 216 215 218 220 215 205 204 205 203 205 200 216 216 215 219 220 219 218 217 217 218 223 230 234 230 226 225 228 230 229 232 236 239 236 239 238 238 233 225 221 224 228 236 248 221 231 247 257 230 223 238 233 249 249 247 264 290 298 262 290 309 157 106 240 266 329 32 320 307 340 41 4 19 33 39 44 33 22
215 215 217 217 217 217 217 216 216 219 221 210 203 203 203 204 199 199 212 216 217 220 224 223 221 219 217 216 219 227 233 236 233 224 223 221 222 228 232 240 244 240 240 235 234 230 224 223 227 235 241 243 238 242 246 247 234 218 245 281 292 265 272 303 279 303 270 290 129 143 223 279 339 73 283 288 27 47 360 30 23 40 39 27 14
214 214 215 214 215 215 215 216 217 221 222 209 201 202 203 202 191 205 209 216 222 225 229 227 223 219 217 216 217 222 229 234 237 230 226 216 221 224 227 236 238 240 248 243 227 228 230 229 230 235 243 247 251 257 266 270 252 205 136 302 267 209 220 265 275 280 271 231 278 162 155 260 317 62 310 289 15 108 26 21 21 32 27 18 9
215 216 214 216 216 215 214 216 215 218 222 210 200 203 202 198 190 201 206 211 223 226 234 234 227 222 219 217 214 220 225 231 231 230 233 222 229 234 237 241 245 247 255 240 214 229 229 234 237 242 249 259 266 269 270 266 246 172 185 225 235 177 236 230 255 258 279 274 223 167 137 222 309 16 332 312 11 108 12 16 27 18 12 5 4
214 214 213 216 217 216 216 215 214 215 221 212 198 203 203 197 193 205 203 210 220 228 231 237 230 222 226 227 224 222 222 228 225 223 227 222 230 232 232 235 243 246 245 231 220 227 212 218 243 241 254 248 248 247 256 258 241 199 203 220 222 207 232 239 246 272 292 277 252 171 180 276 70 342 85 29 355 289 267 10 25 17 4 1 0